TimeEDT,TemperatureF,Dew PointF,Humidity,Sea Level PressureIn,VisibilityMPH,Wind Direction,Wind SpeedMPH,Gust SpeedMPH,PrecipitationIn,Events,Conditions,WindDirDegrees,DateUTC
12:53 AM,75.0,70.0,84,29.87,10.0,Calm,Calm,-,N/A,,Clear,0,2013-09-14 04:53:00
1:53 AM,75.0,70.0,84,29.87,10.0,Calm,Calm,-,N/A,,Clear,0,2013-09-14 05:53:00
2:53 AM,73.9,69.1,85,29.86,8.0,Calm,Calm,-,N/A,,Clear,0,2013-09-14 06:53:00
3:53 AM,73.9,69.1,85,29.86,8.0,Calm,Calm,-,N/A,,Mostly Cloudy,0,2013-09-14 07:53:00
4:53 AM,73.0,69.1,87,29.87,7.0,Calm,Calm,-,N/A,,Clear,0,2013-09-14 08:53:00
5:53 AM,73.0,69.1,87,29.87,8.0,Calm,Calm,-,N/A,,Clear,0,2013-09-14 09:53:00
6:53 AM,72.0,68.0,87,29.88,7.0,Calm,Calm,-,N/A,,Clear,0,2013-09-14 10:53:00
7:53 AM,72.0,68.0,87,29.91,7.0,North,4.6,-,N/A,,Clear,360,2013-09-14 11:53:00
8:53 AM,78.1,66.0,66,29.92,10.0,NNE,8.1,-,N/A,,Clear,20,2013-09-14 12:53:00
9:53 AM,80.1,66.0,62,29.94,10.0,NE,4.6,-,N/A,,Clear,40,2013-09-14 13:53:00
10:53 AM,84.9,66.9,55,29.95,10.0,Calm,Calm,-,N/A,,Clear,0,2013-09-14 14:53:00
11:53 AM,89.1,64.0,43,29.96,10.0,Calm,Calm,-,N/A,,Clear,0,2013-09-14 15:53:00
12:53 PM,91.0,64.0,41,29.96,10.0,Calm,Calm,-,N/A,,Clear,0,2013-09-14 16:53:00
1:53 PM,93.0,66.0,41,29.95,10.0,North,3.5,-,N/A,,Clear,360,2013-09-14 17:53:00
2:53 PM,93.9,66.0,40,29.94,10.0,Variable,4.6,-,N/A,,Clear,0,2013-09-14 18:53:00
3:53 PM,95.0,66.0,38,29.93,10.0,Variable,3.5,-,N/A,,Clear,0,2013-09-14 19:53:00
4:53 PM,93.9,66.0,40,29.92,10.0,Variable,4.6,-,N/A,,Clear,0,2013-09-14 20:53:00
5:53 PM,93.0,66.0,41,29.93,10.0,Calm,Calm,-,N/A,,Clear,0,2013-09-14 21:53:00
6:53 PM,89.1,66.0,46,29.94,10.0,NE,4.6,-,N/A,,Clear,40,2013-09-14 22:53:00
7:53 PM,82.9,68.0,60,29.96,10.0,Calm,Calm,-,N/A,,Clear,0,2013-09-14 23:53:00
8:53 PM,78.1,68.0,71,29.99,10.0,Calm,Calm,-,N/A,,Clear,0,2013-09-15 00:53:00
9:53 PM,77.0,68.0,74,30.01,10.0,Calm,Calm,-,N/A,,Clear,0,2013-09-15 01:53:00
10:53 PM,79.0,68.0,69,30.02,10.0,NNE,3.5,-,N/A,,Mostly Cloudy,20,2013-09-15 02:53:00
11:53 PM,79.0,66.0,64,30.03,10.0,NE,3.5,-,N/A,,Clear,40,2013-09-15 03:53:00